Other Public Products
Issued by NWS Charleston, SC

Current Version | Previous Version | Graphics & Text | Print | Product List | Glossary On
Versions: 1 2 3 4 5 6 7 8 9 10 11 12 13 14 15 16 17 18 19 20 21 22 23 24 25 26 27 28 29 30 31 32 33 34 35 36 37 38 39 40 41 42 43 44 45 46 47 48 49 50
000
FPUS82 KCHS 210327
OPUCHS

TEST...KCHS/KSAV Gateway Observations...TEST
National Weather Service Charleston SC
1100 PM EDT SUN AUG 20 2017

NOTE: "fair" indicates few or no clouds below 12,000 feet with no
significant weather and/or obstructions to visibility.

SCZ050-WAZ558-NCZ071-TXZ119-213-PAZ071-DCZ001-FLZ074-172-MI076-
NYZ176-178-MAZ016-IL014-TNZ027-NJZ106-GAZ044-MD014-210400-

...Gateway Observations for Charleston International...

CITY           SKY/WX    TMP DP  RH WIND       PRES   REMARKS
Chas Airport   CLOUDY    83  77  82 CALM      30.13R HX  92
Seattle        PTCLDY    71  53  52 NE12      30.11R
Charlotte      MOCLDY    86  72  62 E9        30.17R HX  92
Dallas DFW     PTCLDY    89  72  56 SE12      29.98R HX  96
Dallas Love    PTCLDY    89  72  56 SE14      29.99R HX  96
Philladelphia  PTCLDY    76  65  68 W6        30.18R
Wash National  CLEAR     77  69  76 S6        30.19R
Baltimore      PTCLDY    69  67  93 CALM      30.19R
Miami          MOCLDY    87  75  67 E15       30.07R HX  96
Detroit        CLOUDY    74  68  81 SE5       30.09F
Newark         CLEAR     76  60  57 W7        30.15R
Laguardia      PTCLDY    79  61  53 NW8       30.14R
J F K          PTCLDY    79  59  50 W8        30.15R
Boston Logan   CLEAR     75  56  51 W5        30.09R
Ft. Lauderdale MOCLDY    84  77  79 E15       30.06R HX  94
Chicago O`Hare CLOUDY    80  70  71 CALM      30.03S
Chicago Midway CLOUDY    82  70  66 SE6       30.03S
Houston Bush   PTCLDY    84  75  74 SE8       30.01R HX  92
Houston Hobby  PTCLDY    85  73  67 SE5       30.00R HX  91
Nashville      CLOUDY    79  69  71 S6        30.12R
Atlanta        PTCLDY    83  68  60 SE6       30.14R

$$

GAZ044-118-TXZ119-213-NCZ071-DCZ001-MDZ014-506-PAZ021-071-NJZ106-
NYZ176-178-MAZ106-OHZ011-021-055-MIZ076-KYZ091-ILZ014-INZ047-
MNZ060-ONZ431-210400-

...Gateway Observations for Savannah International...

CITY           SKY/WX    TMP DP  RH WIND       PRES   REMARKS
Savannah Arpt  CLOUDY    83  77  82 S3        30.13R HX  92
Atlanta        PTCLDY    83  68  60 SE6       30.14R
Charlotte      MOCLDY    86  72  62 E9        30.17R HX  92
Dallas DFW     PTCLDY    89  72  56 SE12      29.98R HX  96
Houston Bush   PTCLDY    84  75  74 SE8       30.01R HX  92
Wash National  CLEAR     77  69  76 S6        30.19R
Wash Dulles    PTCLDY    72  68  87 CALM      30.18R
Baltimore      PTCLDY    69  67  93 CALM      30.19R
Philadelphia   PTCLDY    76  65  68 W6        30.18R
Newark         CLEAR     76  60  57 W7        30.15R
Laguardia      PTCLDY    79  61  53 NW8       30.14R
J F K          PTCLDY    79  59  50 W8        30.15R
Boston         CLEAR     75  56  51 W5        30.09R
Pittsburg      CLOUDY    71  66  84 S3        30.17S
Akron          CLOUDY    76  63  64 SE8       30.15R
Cleveland      CLOUDY    80  64  58 S8        30.11F
Cincinnati     CLOUDY    75  68  78 SE5       30.10S
Columbus       CLOUDY    73  70  89 CALM      30.10S
Detroit        CLOUDY    74  68  81 SE5       30.09F
Chicago O`Hare CLOUDY    80  70  71 CALM      30.03S
Minneapolis    PTCLDY    74  64  71 N6        30.00R
Indianapolis   PTCLDY    79  69  71 S7        30.07R
Toronto Canada PTCLDY    70  61  73 W6        30.09S

$$




USA.gov is the U.S. government's official web portal to all federal, state and local government web resources and services.